• In Netherlands
  • List of Countries
  • For 7 days
  • Water Temperature
  • Satellite Maps
  • Weather Map
  • Weather Widgets
  • user-avatar
    Login

    Hourly Weather Gjirokaster

    Today, 24 January, Tuesday

    Time Temperature Precipitation Wind Pressure Humidity
    00:00 -5°C° 0.1 mm 3 mps 649 mmHg 85%
    01:00 -4°C° 0 mm 3 mps 649 mmHg 84%
    02:00 -4°C° 0.2 mm 3 mps 649 mmHg 85%
    03:00 -5°C° 0.2 mm 3 mps 648 mmHg 86%
    04:00 -5°C° 0.2 mm 3 mps 648 mmHg 86%
    05:00 -5°C° 0.4 mm 3 mps 648 mmHg 87%
    06:00 -5°C° 0.4 mm 3 mps 647 mmHg 87%
    07:00 -5°C° 0 mm 3 mps 647 mmHg 87%
    08:00 -4°C° 0.4 mm 3 mps 647 mmHg 86%
    09:00 -4°C° 0.4 mm 3 mps 647 mmHg 85%
    10:00 -2°C° 0.4 mm 3 mps 647 mmHg 83%
    11:00 -2°C° 0.5 mm 3 mps 647 mmHg 84%
    12:00 -2°C° 0.5 mm 3 mps 647 mmHg 85%
    13:00 -1°C° 0.5 mm 3 mps 647 mmHg 86%
    14:00 -1°C° 0.3 mm 3 mps 647 mmHg 87%
    15:00 -2°C° 0.3 mm 2 mps 647 mmHg 88%
    16:00 -2°C° 0.3 mm 2 mps 647 mmHg 90%
    17:00 -2°C° 0.1 mm 2 mps 647 mmHg 90%
    18:00 -2°C° 0.1 mm 3 mps 647 mmHg 90%
    19:00 -4°C° 0.1 mm 3 mps 647 mmHg 90%
    20:00 -4°C° 0 mm 3 mps 647 mmHg 90%
    21:00 -4°C° 0 mm 3 mps 647 mmHg 89%
    22:00 -4°C° 0 mm 2 mps 647 mmHg 89%
    23:00 -4°C° 0 mm 2 mps 647 mmHg 89%

    Tomorrow, 25 January, Wednesday

    Time Temperature Precipitation Wind Pressure Humidity
    00:00 -5°C° 0 mm 3 mps 647 mmHg 89%
    01:00 -5°C° 0 mm 3 mps 647 mmHg 89%
    02:00 -5°C° 0 mm 3 mps 647 mmHg 89%
    03:00 -5°C° 0 mm 3 mps 647 mmHg 89%
    04:00 -5°C° 0 mm 3 mps 647 mmHg 89%
    05:00 -5°C° 0 mm 3 mps 647 mmHg 89%
    06:00 -5°C° 0 mm 3 mps 648 mmHg 89%
    07:00 -5°C° 0 mm 3 mps 648 mmHg 89%
    08:00 -4°C° 0 mm 3 mps 648 mmHg 87%
    09:00 -2°C° 0 mm 3 mps 649 mmHg 84%
    10:00 -1°C° 0 mm 3 mps 650 mmHg 82%
    11:00 +1°C° 0 mm 2 mps 650 mmHg 80%
    12:00 +2°C° 0 mm 2 mps 650 mmHg 79%
    13:00 +2°C° 0 mm 2 mps 650 mmHg 77%
    14:00 +2°C° 0 mm 2 mps 650 mmHg 79%
    15:00 +1°C° 0 mm 2 mps 650 mmHg 82%
    16:00 +1°C° 0 mm 2 mps 650 mmHg 84%
    17:00 -1°C° 0 mm 2 mps 650 mmHg 85%
    18:00 -2°C° 0 mm 2 mps 650 mmHg 87%
    19:00 -3°C° 0 mm 2 mps 650 mmHg 88%
    20:00 -3°C° 0 mm 2 mps 650 mmHg 88%
    21:00 -4°C° 0 mm 2 mps 651 mmHg 88%
    22:00 -4°C° 0 mm 2 mps 651 mmHg 88%
    23:00 -4°C° 0 mm 2 mps 651 mmHg 87%

    Day after tomorrow, 26 January, Thursday

    Time Temperature Precipitation Wind Pressure Humidity
    00:00 -4°C° 0 mm 2 mps 651 mmHg 87%
    01:00 -4°C° 0 mm 2 mps 651 mmHg 87%
    02:00 -4°C° 0.1 mm 2 mps 651 mmHg 87%
    03:00 -4°C° 0.1 mm 2 mps 651 mmHg 87%
    04:00 -4°C° 0.1 mm 2 mps 651 mmHg 87%
    05:00 -4°C° 0 mm 2 mps 651 mmHg 87%
    06:00 -4°C° 0 mm 2 mps 651 mmHg 87%
    07:00 -5°C° 0 mm 2 mps 651 mmHg 88%
    08:00 -3°C° 0 mm 2 mps 652 mmHg 84%
    09:00 -2°C° 0 mm 2 mps 653 mmHg 81%
    10:00 -1°C° 0 mm 2 mps 653 mmHg 77%
    11:00 +2°C° 0.1 mm 1 mps 653 mmHg 76%
    12:00 +2°C° 0.1 mm 1 mps 653 mmHg 75%
    13:00 +3°C° 0.1 mm 1 mps 653 mmHg 75%
    14:00 +3°C° 0.1 mm 1 mps 653 mmHg 78%
    15:00 +2°C° 0.1 mm 1 mps 653 mmHg 81%
    16:00 +2°C° 0.1 mm 1 mps 653 mmHg 85%
    17:00 +1°C° 0.1 mm 1 mps 653 mmHg 87%
    18:00 0°C° 0.1 mm 1 mps 654 mmHg 89%
    19:00 -1°C° 0.1 mm 1 mps 654 mmHg 91%
    20:00 -1°C° 0.1 mm 1 mps 654 mmHg 91%
    21:00 -1°C° 0.1 mm 1 mps 654 mmHg 92%
    22:00 -1°C° 0.1 mm 1 mps 654 mmHg 92%
    23:00 -2°C° 0 mm 1 mps 654 mmHg 92%

    27 January, Friday

    Time Temperature Precipitation Wind Pressure Humidity
    00:00 -2°C° 0 mm 1 mps 654 mmHg 91%
    01:00 -2°C° 0 mm 1 mps 654 mmHg 91%
    02:00 -2°C° 0 mm 1 mps 654 mmHg 91%
    03:00 -3°C° 0 mm 1 mps 654 mmHg 91%
    04:00 -5°C° 0 mm 2 mps 654 mmHg 91%
    05:00 -6°C° 0 mm 2 mps 654 mmHg 90%
    06:00 -6°C° 0 mm 2 mps 654 mmHg 89%
    07:00 -6°C° 0 mm 2 mps 654 mmHg 89%
    08:00 -4°C° 0 mm 2 mps 655 mmHg 84%
    09:00 -3°C° 0 mm 2 mps 656 mmHg 79%
    10:00 -1°C° 0 mm 2 mps 656 mmHg 74%
    11:00 +1°C° 0 mm 2 mps 656 mmHg 72%
    12:00 +2°C° 0 mm 1 mps 656 mmHg 70%
    13:00 +3°C° 0 mm 1 mps 656 mmHg 69%
    14:00 +3°C° 0 mm 1 mps 656 mmHg 73%
    15:00 +2°C° 0 mm 1 mps 656 mmHg 77%
    16:00 +1°C° 0 mm 1 mps 656 mmHg 81%
    17:00 0°C° 0 mm 1 mps 656 mmHg 83%
    18:00 -1°C° 0 mm 1 mps 656 mmHg 86%
    19:00 -2°C° 0 mm 1 mps 655 mmHg 88%
    20:00 -3°C° 0 mm 1 mps 655 mmHg 88%
    21:00 -4°C° 0 mm 1 mps 655 mmHg 88%
    22:00 -6°C° 0 mm 1 mps 655 mmHg 88%
    23:00 -7°C° 0 mm 2 mps 655 mmHg 88%

    28 January, Saturday

    Time Temperature Precipitation Wind Pressure Humidity
    00:00 -7°C° 0 mm 2 mps 655 mmHg 87%
    01:00 -7°C° 0 mm 2 mps 654 mmHg 86%
    02:00 -7°C° 0 mm 2 mps 654 mmHg 85%
    03:00 -7°C° 0 mm 2 mps 654 mmHg 84%
    04:00 -7°C° 0 mm 2 mps 654 mmHg 83%
    05:00 -7°C° 0 mm 2 mps 654 mmHg 83%
    06:00 -7°C° 0 mm 2 mps 654 mmHg 83%
    07:00 -7°C° 0 mm 2 mps 654 mmHg 83%
    08:00 -3°C° 0 mm 1 mps 654 mmHg 77%
    09:00 0°C° 0 mm 1 mps 655 mmHg 72%
    10:00 +2°C° 0 mm 1 mps 656 mmHg 67%
    11:00 +3°C° 0 mm 1 mps 656 mmHg 64%
    12:00 +4°C° 0 mm 1 mps 655 mmHg 62%
    13:00 +5°C° 0 mm 1 mps 655 mmHg 60%
    14:00 +4°C° 0 mm 1 mps 655 mmHg 65%
    15:00 +3°C° 0 mm 1 mps 655 mmHg 71%
    16:00 +2°C° 0 mm 1 mps 654 mmHg 76%
    17:00 0°C° 0 mm 1 mps 654 mmHg 81%
    18:00 -2°C° 0 mm 1 mps 653 mmHg 85%
    19:00 -4°C° 0 mm 1 mps 653 mmHg 89%
    20:00 -4°C° 0 mm 1 mps 653 mmHg 89%
    21:00 -4°C° 0 mm 1 mps 653 mmHg 89%
    22:00 -4°C° 0 mm 1 mps 653 mmHg 89%
    23:00 -4°C° 0 mm 1 mps 653 mmHg 89%

    29 January, Sunday

    Time Temperature Precipitation Wind Pressure Humidity
    00:00 -4°C° 0 mm 1 mps 653 mmHg 89%
    01:00 -4°C° 0 mm 1 mps 653 mmHg 89%
    02:00 -4°C° 0 mm 1 mps 652 mmHg 87%
    03:00 -4°C° 0 mm 1 mps 652 mmHg 86%
    04:00 -4°C° 0 mm 1 mps 652 mmHg 85%
    05:00 -4°C° 0 mm 1 mps 652 mmHg 84%
    06:00 -3°C° 0 mm 1 mps 652 mmHg 83%
    07:00 -3°C° 0 mm 1 mps 653 mmHg 83%
    08:00 -1°C° 0 mm 1 mps 653 mmHg 76%
    09:00 +1°C° 0 mm 1 mps 654 mmHg 69%
    10:00 +3°C° 0 mm 1 mps 654 mmHg 63%
    11:00 +3°C° 0 mm 1 mps 654 mmHg 62%
    12:00 +4°C° 0 mm 1 mps 654 mmHg 61%
    13:00 +4°C° 0 mm 1 mps 654 mmHg 60%
    14:00 +3°C° 0 mm 1 mps 654 mmHg 66%
    15:00 +3°C° 0 mm 1 mps 654 mmHg 71%
    16:00 +2°C° 0 mm 1 mps 653 mmHg 77%
    17:00 0°C° 0 mm 1 mps 653 mmHg 81%
    18:00 -2°C° 0 mm 1 mps 653 mmHg 86%
    19:00 -3°C° 0 mm 1 mps 653 mmHg 90%
    20:00 -4°C° 0 mm 1 mps 653 mmHg 90%
    21:00 -4°C° 0 mm 1 mps 653 mmHg 91%
    22:00 -5°C° 0 mm 0 mps 653 mmHg 91%
    23:00 -5°C° 0 mm 0 mps 653 mmHg 91%
    Show more